Stündliche Wetter Bolshie Konyushany

Heute, 29 Juli, Donnerstag

Zeit Temperatur Niederschläge Wind Luftdruck Luftfeuchtigkeit
00:00 +22°C° 0.2 mm 1 m/S 745 mmHg 74%
01:00 +20°C° 0.2 mm 2 m/S 745 mmHg 79%
02:00 +20°C° 0 mm 2 m/S 744 mmHg 82%
03:00 +19°C° 0.2 mm 2 m/S 744 mmHg 86%
04:00 +20°C° 0.2 mm 1 m/S 744 mmHg 90%
05:00 +19°C° 0.2 mm 1 m/S 744 mmHg 94%
06:00 +20°C° 0.2 mm 1 m/S 744 mmHg 90%
07:00 +22°C° 0.2 mm 1 m/S 744 mmHg 87%
08:00 +22°C° 0 mm 1 m/S 744 mmHg 85%
09:00 +22°C° 0.4 mm 1 m/S 744 mmHg 87%
10:00 +22°C° 0.4 mm 1 m/S 744 mmHg 90%
11:00 +20°C° 0.4 mm 2 m/S 744 mmHg 93%
12:00 +22°C° 0.6 mm 3 m/S 744 mmHg 86%
13:00 +24°C° 0.6 mm 3 m/S 743 mmHg 79%
14:00 +25°C° 0 mm 3 m/S 743 mmHg 74%
15:00 +25°C° 0.7 mm 4 m/S 743 mmHg 74%
16:00 +25°C° 0.7 mm 4 m/S 743 mmHg 74%
17:00 +25°C° 0.7 mm 4 m/S 743 mmHg 74%
18:00 +23°C° 0.1 mm 4 m/S 743 mmHg 76%
19:00 +22°C° 0.1 mm 3 m/S 743 mmHg 78%
20:00 +21°C° 0.1 mm 2 m/S 743 mmHg 80%
21:00 +20°C° 0 mm 2 m/S 744 mmHg 81%
22:00 +20°C° 0 mm 2 m/S 744 mmHg 81%
23:00 +19°C° 0 mm 2 m/S 744 mmHg 82%

Morgen, 30 Juli, Freitag

Zeit Temperatur Niederschläge Wind Luftdruck Luftfeuchtigkeit
00:00 +18°C° 0 mm 2 m/S 744 mmHg 84%
01:00 +17°C° 0 mm 2 m/S 744 mmHg 86%
02:00 +17°C° 0 mm 3 m/S 744 mmHg 89%
03:00 +16°C° 0 mm 3 m/S 744 mmHg 89%
04:00 +16°C° 0 mm 3 m/S 744 mmHg 90%
05:00 +14°C° 0 mm 3 m/S 744 mmHg 90%
06:00 +17°C° 0 mm 3 m/S 744 mmHg 84%
07:00 +18°C° 0 mm 4 m/S 744 mmHg 78%
08:00 +20°C° 0 mm 4 m/S 744 mmHg 72%
09:00 +21°C° 0 mm 5 m/S 744 mmHg 64%
10:00 +22°C° 0 mm 5 m/S 744 mmHg 57%
11:00 +23°C° 0 mm 5 m/S 744 mmHg 49%
12:00 +23°C° 0 mm 5 m/S 744 mmHg 51%
13:00 +23°C° 0 mm 5 m/S 744 mmHg 53%
14:00 +23°C° 0 mm 6 m/S 743 mmHg 56%
15:00 +23°C° 0 mm 5 m/S 743 mmHg 58%
16:00 +22°C° 0 mm 5 m/S 743 mmHg 60%
17:00 +22°C° 0 mm 4 m/S 743 mmHg 62%
18:00 +21°C° 0 mm 4 m/S 743 mmHg 65%
19:00 +20°C° 0 mm 3 m/S 742 mmHg 68%
20:00 +20°C° 0 mm 3 m/S 742 mmHg 71%
21:00 +19°C° 0 mm 3 m/S 742 mmHg 73%
22:00 +18°C° 0 mm 3 m/S 742 mmHg 74%
23:00 +17°C° 0 mm 3 m/S 742 mmHg 76%

übermorgen, 31 Juli, Samstag

Zeit Temperatur Niederschläge Wind Luftdruck Luftfeuchtigkeit
00:00 +16°C° 0 mm 3 m/S 742 mmHg 77%
01:00 +16°C° 0 mm 3 m/S 742 mmHg 78%
02:00 +14°C° 0 mm 3 m/S 742 mmHg 79%
03:00 +14°C° 0 mm 3 m/S 743 mmHg 81%
04:00 +14°C° 0 mm 3 m/S 743 mmHg 83%
05:00 +13°C° 0 mm 3 m/S 743 mmHg 85%
06:00 +16°C° 0 mm 3 m/S 743 mmHg 78%
07:00 +18°C° 0 mm 3 m/S 743 mmHg 72%
08:00 +19°C° 0 mm 4 m/S 743 mmHg 66%
09:00 +21°C° 0 mm 4 m/S 743 mmHg 61%
10:00 +22°C° 0 mm 4 m/S 744 mmHg 57%
11:00 +23°C° 0 mm 4 m/S 744 mmHg 52%
12:00 +25°C° 0 mm 4 m/S 744 mmHg 51%
13:00 +26°C° 0 mm 4 m/S 743 mmHg 50%
14:00 +27°C° 0 mm 4 m/S 743 mmHg 49%
15:00 +27°C° 0 mm 3 m/S 743 mmHg 49%
16:00 +27°C° 0 mm 2 m/S 742 mmHg 50%
17:00 +27°C° 0 mm 2 m/S 742 mmHg 50%
18:00 +26°C° 0 mm 2 m/S 742 mmHg 55%
19:00 +24°C° 0 mm 2 m/S 742 mmHg 60%
20:00 +23°C° 0 mm 2 m/S 742 mmHg 66%
21:00 +21°C° 0.5 mm 3 m/S 742 mmHg 75%
22:00 +19°C° 0.5 mm 3 m/S 742 mmHg 85%
23:00 +18°C° 0.5 mm 3 m/S 743 mmHg 94%

1 August, Sonntag

Zeit Temperatur Niederschläge Wind Luftdruck Luftfeuchtigkeit
00:00 +18°C° 0.1 mm 3 m/S 743 mmHg 95%
01:00 +17°C° 0.1 mm 3 m/S 742 mmHg 95%
02:00 +17°C° 0.1 mm 3 m/S 742 mmHg 95%
03:00 +17°C° 0 mm 3 m/S 742 mmHg 96%
04:00 +17°C° 0 mm 3 m/S 742 mmHg 96%
05:00 +16°C° 0 mm 3 m/S 742 mmHg 96%
06:00 +18°C° 0 mm 3 m/S 742 mmHg 90%
07:00 +19°C° 0 mm 3 m/S 743 mmHg 84%
08:00 +20°C° 0 mm 4 m/S 743 mmHg 78%
09:00 +21°C° 0 mm 4 m/S 743 mmHg 70%
10:00 +22°C° 0 mm 4 m/S 744 mmHg 61%
11:00 +25°C° 0 mm 5 m/S 744 mmHg 53%
12:00 +25°C° 0 mm 5 m/S 744 mmHg 51%
13:00 +26°C° 0 mm 4 m/S 744 mmHg 50%
14:00 +26°C° 0 mm 4 m/S 744 mmHg 48%
15:00 +26°C° 0 mm 3 m/S 744 mmHg 53%
16:00 +25°C° 0 mm 3 m/S 744 mmHg 57%
17:00 +24°C° 0 mm 2 m/S 744 mmHg 62%
18:00 +24°C° 0 mm 2 m/S 743 mmHg 63%
19:00 +23°C° 0 mm 1 m/S 743 mmHg 65%
20:00 +22°C° 0 mm 1 m/S 743 mmHg 66%
21:00 +20°C° 0 mm 2 m/S 743 mmHg 69%
22:00 +19°C° 0 mm 2 m/S 743 mmHg 71%
23:00 +19°C° 0 mm 2 m/S 743 mmHg 74%

2 August, Montag

Zeit Temperatur Niederschläge Wind Luftdruck Luftfeuchtigkeit
00:00 +18°C° 0.6 mm 2 m/S 742 mmHg 80%
01:00 +17°C° 0.6 mm 3 m/S 742 mmHg 87%
02:00 +17°C° 0.6 mm 3 m/S 741 mmHg 93%
03:00 +17°C° 0.6 mm 3 m/S 741 mmHg 94%
04:00 +17°C° 0.6 mm 2 m/S 741 mmHg 95%
05:00 +16°C° 0.6 mm 2 m/S 740 mmHg 96%
06:00 +16°C° 0.1 mm 2 m/S 740 mmHg 96%
07:00 +16°C° 0.1 mm 3 m/S 740 mmHg 96%
08:00 +16°C° 0.1 mm 3 m/S 740 mmHg 96%
09:00 +16°C° 1.3 mm 3 m/S 741 mmHg 96%
10:00 +15°C° 1.3 mm 4 m/S 741 mmHg 96%
11:00 +15°C° 1.3 mm 5 m/S 741 mmHg 96%
12:00 +15°C° 0.5 mm 4 m/S 742 mmHg 95%
13:00 +15°C° 0.5 mm 4 m/S 742 mmHg 95%
14:00 +15°C° 0.5 mm 4 m/S 743 mmHg 94%
15:00 +17°C° 0 mm 4 m/S 743 mmHg 87%
16:00 +18°C° 0 mm 4 m/S 743 mmHg 80%
17:00 +19°C° 0 mm 3 m/S 744 mmHg 73%
18:00 +18°C° 0 mm 3 m/S 744 mmHg 77%
19:00 +17°C° 0 mm 2 m/S 743 mmHg 81%
20:00 +16°C° 0 mm 2 m/S 743 mmHg 84%
21:00 +16°C° 0.1 mm 2 m/S 743 mmHg 87%
22:00 +15°C° 0.1 mm 2 m/S 744 mmHg 90%
23:00 +14°C° 0.1 mm 3 m/S 744 mmHg 93%

3 August, Dienstag

Zeit Temperatur Niederschläge Wind Luftdruck Luftfeuchtigkeit
00:00 +13°C° 0 mm 3 m/S 744 mmHg 94%
01:00 +13°C° 0 mm 3 m/S 744 mmHg 95%
02:00 +13°C° 0 mm 3 m/S 744 mmHg 96%
03:00 +12°C° 0 mm 3 m/S 745 mmHg 96%
04:00 +12°C° 0 mm 3 m/S 745 mmHg 95%
05:00 +12°C° 0 mm 3 m/S 745 mmHg 95%
06:00 +13°C° 0 mm 4 m/S 745 mmHg 88%
07:00 +14°C° 0 mm 5 m/S 745 mmHg 82%
08:00 +16°C° 0 mm 5 m/S 745 mmHg 75%
09:00 +17°C° 0 mm 6 m/S 746 mmHg 70%
10:00 +19°C° 0 mm 6 m/S 746 mmHg 65%
11:00 +20°C° 0 mm 7 m/S 746 mmHg 61%
12:00 +21°C° 0.1 mm 7 m/S 746 mmHg 60%
13:00 +21°C° 0.1 mm 6 m/S 746 mmHg 60%
14:00 +21°C° 0.1 mm 6 m/S 746 mmHg 60%
15:00 +21°C° 0.2 mm 6 m/S 746 mmHg 62%
16:00 +21°C° 0.2 mm 5 m/S 747 mmHg 63%
17:00 +21°C° 0.2 mm 5 m/S 747 mmHg 64%
18:00 +20°C° 0.1 mm 4 m/S 747 mmHg 70%
19:00 +18°C° 0.1 mm 3 m/S 747 mmHg 77%
20:00 +17°C° 0.1 mm 3 m/S 747 mmHg 83%
21:00 +16°C° 0 mm 3 m/S 748 mmHg 85%
22:00 +14°C° 0 mm 3 m/S 748 mmHg 88%
23:00 +13°C° 0 mm 3 m/S 748 mmHg 91%
Mehr zeigen

Wir brauchen deine Erlaubnis

Meteoprog und unser Service Anbieter werden persönliche Daten aufbewahren, so wie Cookies, Geräte Bezeichnung oder ähnliche Technologien von deinem Gerät und Prozess, so wie Persönliche Daten Inhalte und Werbungen, genauso wie social Media und den Verkehr zu analysieren.

  • Aufbewahrung und/oder Zugang zu deiner Geräte Informationen.

    Cookies, Geräte Bezeichnung oder andere Informationen, können aufbewahrt oder Zugang zu deinem Gerät erhalten, für den Grund, der oben angegeben wird.

  • Personalisierte Werbung und Inhalte, Messungen, Einblick in das Publikum und Produkt Entwicklung.

    Werbungen und Inhalte können personalisiert werden, basierend auf ein Profil. Mehr Daten können besser personalisierte Werbungen und Inhalte hinzufügen. Werbung und Inhalte können gezeigt und gemessen werden. Einblicke über das Publikum, welche die Werbung gesehen haben und den Inhalt, können abgeleitet werden. So wie Daten können genutzt werden, um es zu verbessern oder die Benutzer Erfahrung zu verbessern das System und die Software.

Wenn du “Ich stimme zu” klickst, erlaubst du uns, die Cookies zu benutzen die Geräte Bezeichnung, den Web oder ähnliche Technologien zu benutzen. Deine Settings, können in deinem Gerät bei deinem Browser geändert werden.

Für den bestimmten Zweck, berechtigten Interessen beruhen darauf, mehr als auf den Inhalt. Du kannst mehr darüber in unseren Privaten und Cookie Politik lesen.